カタログに戻る

USA 61

運用中軍事LEO
NORAD 20691·PAYLOAD·🇺🇸 United States

打ち上げ Jun 8, 1990 から Cape Canaveral Space Force Station

Loading…

次のパス (今後24時間)

TLE

最新Source: Space-Track

元期: Sep 14, 2026, 14:31 UTC

1 20691U 90050C   26257.60502736  .00002951  00000-0  21486-3 0  9994
2 20691  63.2963 330.4058 0877842  86.8945 283.2046 13.63657913118490

AllMySatでUSA 61をリアルタイム追跡

Download on the App Store